Time,TemperatureF,DewpointF,PressureIn,WindDirection,WindDirectionDegrees,WindSpeedMPH,WindSpeedGustMPH,Humidity,HourlyPrecipIn,Conditions,Clouds,dailyrainin,SolarRadiationWatts/m^2,SoftwareType,DateUTC
2013-02-06 00:01:00,53.0,52.0,-100.00,East,88,2.0,8.0,97,0.00,,,0.00,0.000000,,2013-02-06 10:01:00,
2013-02-06 00:11:00,53.0,52.0,-100.00,East,88,2.0,8.0,97,0.00,,,0.00,0.000000,,2013-02-06 10:11:00,
2013-02-06 00:21:00,53.0,52.0,-100.00,East,88,2.0,8.0,97,0.00,,,0.00,0.000000,,2013-02-06 10:21:00,
2013-02-06 00:42:00,54.0,53.0,-100.00,East,85,2.0,11.0,97,0.00,,,0.00,0.000000,,2013-02-06 10:42:00,
2013-02-06 00:52:00,54.0,53.0,-100.00,East,85,2.0,11.0,97,0.00,,,0.00,0.000000,,2013-02-06 10:52:00,
2013-02-06 01:01:00,54.0,53.0,-100.00,East,85,2.0,11.0,97,0.00,,,0.00,0.000000,,2013-02-06 11:01:00,
2013-02-06 01:11:00,54.0,53.0,-100.00,East,85,2.0,11.0,97,0.00,,,0.00,0.000000,,2013-02-06 11:11:00,
2013-02-06 01:21:00,54.0,53.0,-100.00,East,85,2.0,11.0,97,0.00,,,0.00,0.000000,,2013-02-06 11:21:00,
2013-02-06 01:42:00,54.0,53.0,-100.00,East,87,1.0,7.0,97,0.00,,,0.00,0.000000,,2013-02-06 11:42:00,
2013-02-06 01:53:00,54.0,53.0,-100.00,East,87,1.0,7.0,97,0.00,,,0.00,0.000000,,2013-02-06 11:53:00,
2013-02-06 02:01:00,54.0,53.0,-100.00,East,87,1.0,7.0,97,0.00,,,0.00,0.000000,,2013-02-06 12:01:00,
2013-02-06 02:12:00,54.0,53.0,-100.00,East,87,1.0,7.0,97,0.00,,,0.00,0.000000,,2013-02-06 12:12:00,
2013-02-06 02:21:00,54.0,53.0,-100.00,East,87,1.0,7.0,97,0.00,,,0.00,0.000000,,2013-02-06 12:21:00,
2013-02-06 02:42:00,54.0,53.0,-100.00,East,90,2.0,9.0,97,0.00,,,0.00,0.000000,,2013-02-06 12:42:00,
2013-02-06 02:52:00,54.0,53.0,-100.00,East,90,2.0,9.0,97,0.00,,,0.00,0.000000,,2013-02-06 12:52:00,
2013-02-06 03:01:00,54.0,53.0,-100.00,East,90,2.0,9.0,97,0.00,,,0.00,0.000000,,2013-02-06 13:01:00,
2013-02-06 03:11:00,54.0,53.0,-100.00,East,90,2.0,9.0,97,0.00,,,0.00,0.000000,,2013-02-06 13:11:00,
2013-02-06 03:21:00,54.0,53.0,-100.00,East,90,2.0,9.0,97,0.00,,,0.00,0.000000,,2013-02-06 13:21:00,
2013-02-06 03:42:00,54.0,53.0,-100.00,East,101,2.0,9.0,97,0.00,,,0.00,0.000000,,2013-02-06 13:42:00,
2013-02-06 03:52:00,54.0,53.0,-100.00,East,101,2.0,9.0,97,0.00,,,0.00,0.000000,,2013-02-06 13:52:00,
2013-02-06 04:01:00,54.0,53.0,-100.00,East,101,2.0,9.0,97,0.00,,,0.00,0.000000,,2013-02-06 14:01:00,
2013-02-06 04:11:00,54.0,53.0,-100.00,East,101,2.0,9.0,97,0.00,,,0.00,0.000000,,2013-02-06 14:11:00,
2013-02-06 04:21:00,54.0,53.0,-100.00,East,101,2.0,9.0,97,0.00,,,0.00,0.000000,,2013-02-06 14:21:00,
2013-02-06 04:42:00,54.0,53.0,-100.00,East,85,2.0,10.0,97,0.00,,,0.00,0.000000,,2013-02-06 14:42:00,
2013-02-06 04:52:00,54.0,53.0,-100.00,East,85,2.0,10.0,97,0.00,,,0.00,0.000000,,2013-02-06 14:52:00,
2013-02-06 05:01:00,54.0,53.0,-100.00,East,85,2.0,10.0,97,0.00,,,0.00,0.000000,,2013-02-06 15:01:00,
2013-02-06 05:11:00,54.0,53.0,-100.00,East,85,2.0,10.0,97,0.00,,,0.00,0.000000,,2013-02-06 15:11:00,
2013-02-06 05:21:00,54.0,53.0,-100.00,East,85,2.0,10.0,97,0.00,,,0.00,0.000000,,2013-02-06 15:21:00,
2013-02-06 05:42:00,54.0,53.0,-100.00,East,90,3.0,15.0,97,0.00,,,0.00,0.000000,,2013-02-06 15:42:00,
2013-02-06 05:52:00,54.0,53.0,-100.00,East,90,3.0,15.0,97,0.00,,,0.00,0.000000,,2013-02-06 15:52:00,
2013-02-06 06:01:00,54.0,53.0,-100.00,East,90,3.0,15.0,97,0.00,,,0.00,0.000000,,2013-02-06 16:01:00,
2013-02-06 06:11:00,54.0,53.0,-100.00,East,90,3.0,15.0,97,0.00,,,0.00,0.000000,,2013-02-06 16:11:00,
2013-02-06 06:21:00,54.0,53.0,-100.00,East,90,3.0,15.0,97,0.00,,,0.00,0.000000,,2013-02-06 16:21:00,
2013-02-06 06:42:00,54.0,53.0,-100.00,East,87,3.0,14.0,97,0.00,,,0.00,0.000000,,2013-02-06 16:42:00,
2013-02-06 06:52:00,54.0,53.0,-100.00,East,87,3.0,14.0,97,0.00,,,0.00,0.000000,,2013-02-06 16:52:00,
2013-02-06 07:01:00,54.0,53.0,-100.00,East,87,3.0,14.0,97,0.00,,,0.00,0.000000,,2013-02-06 17:01:00,
2013-02-06 07:11:00,54.0,53.0,-100.00,East,87,3.0,14.0,97,0.00,,,0.00,0.000000,,2013-02-06 17:11:00,
2013-02-06 07:21:00,54.0,53.0,-100.00,East,87,3.0,14.0,97,0.00,,,0.00,0.000000,,2013-02-06 17:21:00,
2013-02-06 07:22:00,55.0,54.0,-100.00,East,88,3.0,16.0,97,0.00,,,0.00,0.000000,,2013-02-06 17:22:00,
2013-02-06 07:42:00,55.0,54.0,-100.00,East,88,3.0,16.0,97,0.00,,,0.00,0.000000,,2013-02-06 17:42:00,
2013-02-06 07:52:00,55.0,54.0,-100.00,East,88,3.0,16.0,97,0.00,,,0.00,0.000000,,2013-02-06 17:52:00,
2013-02-06 08:01:00,55.0,54.0,-100.00,East,88,3.0,16.0,97,0.00,,,0.00,0.000000,,2013-02-06 18:01:00,
2013-02-06 08:11:00,55.0,54.0,-100.00,East,88,3.0,16.0,97,0.00,,,0.00,0.000000,,2013-02-06 18:11:00,
2013-02-06 08:42:00,55.0,54.0,-100.00,East,86,3.0,13.0,97,0.00,,,0.00,14.000000,,2013-02-06 18:42:00,
2013-02-06 08:52:00,55.0,54.0,-100.00,East,86,3.0,13.0,97,0.00,,,0.00,14.000000,,2013-02-06 18:52:00,
2013-02-06 09:01:00,55.0,54.0,-100.00,East,86,3.0,13.0,97,0.00,,,0.00,14.000000,,2013-02-06 19:01:00,
2013-02-06 09:11:00,55.0,54.0,-100.00,East,86,3.0,13.0,97,0.00,,,0.00,14.000000,,2013-02-06 19:11:00,
2013-02-06 09:21:00,55.0,54.0,-100.00,East,86,3.0,13.0,97,0.00,,,0.00,14.000000,,2013-02-06 19:21:00,
2013-02-06 09:42:00,55.0,54.0,-100.00,East,85,2.0,12.0,97,0.00,,,0.00,72.000000,,2013-02-06 19:42:00,
2013-02-06 09:52:00,55.0,54.0,-100.00,East,85,2.0,12.0,97,0.00,,,0.00,72.000000,,2013-02-06 19:52:00,
2013-02-06 10:01:00,55.0,54.0,-100.00,East,85,2.0,12.0,97,0.00,,,0.00,72.000000,,2013-02-06 20:01:00,
2013-02-06 10:11:00,55.0,54.0,-100.00,East,85,2.0,12.0,97,0.00,,,0.00,72.000000,,2013-02-06 20:11:00,
2013-02-06 10:21:00,55.0,54.0,-100.00,East,85,2.0,12.0,97,0.00,,,0.00,72.000000,,2013-02-06 20:21:00,
2013-02-06 10:42:00,56.0,55.0,-100.00,East,88,2.0,10.0,97,0.00,,,0.00,128.000000,,2013-02-06 20:42:00,
2013-02-06 10:52:00,56.0,55.0,-100.00,East,88,2.0,10.0,97,0.00,,,0.00,128.000000,,2013-02-06 20:52:00,
2013-02-06 11:01:00,56.0,55.0,-100.00,East,88,2.0,10.0,97,0.00,,,0.00,128.000000,,2013-02-06 21:01:00,
2013-02-06 11:11:00,56.0,55.0,-100.00,East,88,2.0,10.0,97,0.00,,,0.00,128.000000,,2013-02-06 21:11:00,
2013-02-06 11:21:00,56.0,55.0,-100.00,East,88,2.0,10.0,97,0.00,,,0.00,128.000000,,2013-02-06 21:21:00,
2013-02-06 11:42:00,57.0,56.0,-100.00,East,91,2.0,10.0,97,0.00,,,0.00,107.000000,,2013-02-06 21:42:00,
2013-02-06 11:52:00,57.0,56.0,-100.00,East,91,2.0,10.0,97,0.00,,,0.00,107.000000,,2013-02-06 21:52:00,
2013-02-06 12:01:00,57.0,56.0,-100.00,East,91,2.0,10.0,97,0.00,,,0.00,107.000000,,2013-02-06 22:01:00,
2013-02-06 12:11:00,57.0,56.0,-100.00,East,91,2.0,10.0,97,0.00,,,0.00,107.000000,,2013-02-06 22:11:00,
2013-02-06 12:21:00,57.0,56.0,-100.00,East,91,2.0,10.0,97,0.00,,,0.00,107.000000,,2013-02-06 22:21:00,
2013-02-06 12:42:00,57.0,56.0,-100.00,East,86,3.0,12.0,97,0.00,,,0.00,166.000000,,2013-02-06 22:42:00,
2013-02-06 12:52:00,57.0,56.0,-100.00,East,86,3.0,12.0,97,0.00,,,0.00,166.000000,,2013-02-06 22:52:00,
2013-02-06 13:01:00,57.0,56.0,-100.00,East,86,3.0,12.0,97,0.00,,,0.00,166.000000,,2013-02-06 23:01:00,
2013-02-06 13:11:00,57.0,56.0,-100.00,East,86,3.0,12.0,97,0.00,,,0.00,166.000000,,2013-02-06 23:11:00,
2013-02-06 13:21:00,57.0,56.0,-100.00,East,86,3.0,12.0,97,0.00,,,0.00,166.000000,,2013-02-06 23:21:00,
2013-02-06 13:42:00,57.0,56.0,-100.00,East,92,2.0,12.0,97,0.00,,,0.00,190.000000,,2013-02-06 23:42:00,
2013-02-06 13:52:00,57.0,56.0,-100.00,East,92,2.0,12.0,97,0.00,,,0.00,190.000000,,2013-02-06 23:52:00,
2013-02-06 14:01:00,57.0,56.0,-100.00,East,92,2.0,12.0,97,0.00,,,0.00,190.000000,,2013-02-07 00:01:00,
2013-02-06 14:11:00,57.0,56.0,-100.00,East,92,2.0,12.0,97,0.00,,,0.00,190.000000,,2013-02-07 00:11:00,
2013-02-06 14:21:00,57.0,56.0,-100.00,East,92,2.0,12.0,97,0.00,,,0.00,190.000000,,2013-02-07 00:21:00,
2013-02-06 14:42:00,57.0,56.0,-100.00,East,83,3.0,12.0,97,0.00,,,0.00,237.000000,,2013-02-07 00:42:00,
2013-02-06 14:52:00,57.0,56.0,-100.00,East,83,3.0,12.0,97,0.00,,,0.00,237.000000,,2013-02-07 00:52:00,
2013-02-06 15:01:00,57.0,56.0,-100.00,East,83,3.0,12.0,97,0.00,,,0.00,237.000000,,2013-02-07 01:01:00,
2013-02-06 15:11:00,57.0,56.0,-100.00,East,83,3.0,12.0,97,0.00,,,0.00,237.000000,,2013-02-07 01:11:00,
2013-02-06 15:21:00,57.0,56.0,-100.00,East,83,3.0,12.0,97,0.00,,,0.00,237.000000,,2013-02-07 01:21:00,
2013-02-06 15:42:00,58.0,57.0,-100.00,East,94,2.0,9.0,95,0.00,,,0.00,356.000000,,2013-02-07 01:42:00,
2013-02-06 15:52:00,58.0,57.0,-100.00,East,94,2.0,9.0,95,0.00,,,0.00,356.000000,,2013-02-07 01:52:00,
2013-02-06 16:01:00,58.0,57.0,-100.00,East,94,2.0,9.0,95,0.00,,,0.00,356.000000,,2013-02-07 02:01:00,
2013-02-06 16:11:00,58.0,57.0,-100.00,East,94,2.0,9.0,95,0.00,,,0.00,356.000000,,2013-02-07 02:11:00,
2013-02-06 16:21:00,58.0,57.0,-100.00,East,94,2.0,9.0,95,0.00,,,0.00,356.000000,,2013-02-07 02:21:00,
2013-02-06 17:02:00,59.0,58.0,-100.00,East,88,1.0,7.0,96,0.00,,,0.00,259.000000,,2013-02-07 03:02:00,
2013-02-06 17:11:00,59.0,58.0,-100.00,East,88,1.0,7.0,96,0.00,,,0.00,259.000000,,2013-02-07 03:11:00,
2013-02-06 17:21:00,59.0,58.0,-100.00,East,88,1.0,7.0,96,0.00,,,0.00,259.000000,,2013-02-07 03:21:00,
2013-02-06 17:42:00,57.0,56.0,-100.00,East,88,2.0,9.0,97,0.00,,,0.00,104.000000,,2013-02-07 03:42:00,
2013-02-06 17:52:00,57.0,56.0,-100.00,East,88,2.0,9.0,97,0.00,,,0.00,104.000000,,2013-02-07 03:52:00,
2013-02-06 18:01:00,57.0,56.0,-100.00,East,88,2.0,9.0,97,0.00,,,0.00,104.000000,,2013-02-07 04:01:00,
2013-02-06 18:11:00,57.0,56.0,-100.00,East,88,2.0,9.0,97,0.00,,,0.00,104.000000,,2013-02-07 04:11:00,
2013-02-06 18:21:00,57.0,56.0,-100.00,East,88,2.0,9.0,97,0.00,,,0.00,104.000000,,2013-02-07 04:21:00,
2013-02-06 18:42:00,56.0,55.0,-100.00,East,91,2.0,9.0,97,0.00,,,0.00,59.000000,,2013-02-07 04:42:00,
2013-02-06 18:53:00,56.0,55.0,-100.00,East,91,2.0,9.0,97,0.00,,,0.00,59.000000,,2013-02-07 04:53:00,
2013-02-06 19:01:00,56.0,55.0,-100.00,East,91,2.0,9.0,97,0.00,,,0.00,59.000000,,2013-02-07 05:01:00,
2013-02-06 19:11:00,56.0,55.0,-100.00,East,91,2.0,9.0,97,0.00,,,0.00,59.000000,,2013-02-07 05:11:00,
2013-02-06 19:21:00,56.0,55.0,-100.00,East,91,2.0,9.0,97,0.00,,,0.00,59.000000,,2013-02-07 05:21:00,
2013-02-06 19:22:00,56.0,55.0,-100.00,East,101,2.0,10.0,96,0.00,,,0.00,10.000000,,2013-02-07 05:22:00,
2013-02-06 19:42:00,56.0,55.0,-100.00,East,101,2.0,10.0,96,0.00,,,0.00,10.000000,,2013-02-07 05:42:00,
2013-02-06 19:52:00,56.0,55.0,-100.00,East,101,2.0,10.0,96,0.00,,,0.00,10.000000,,2013-02-07 05:52:00,
2013-02-06 20:02:00,56.0,55.0,-100.00,East,101,2.0,10.0,96,0.00,,,0.00,10.000000,,2013-02-07 06:02:00,
2013-02-06 20:11:00,56.0,55.0,-100.00,East,101,2.0,10.0,96,0.00,,,0.00,10.000000,,2013-02-07 06:11:00,
2013-02-06 20:43:00,55.0,54.0,-100.00,East,97,2.0,9.0,96,0.00,,,0.00,0.000000,,2013-02-07 06:43:00,
2013-02-06 20:52:00,55.0,54.0,-100.00,East,97,2.0,9.0,96,0.00,,,0.00,0.000000,,2013-02-07 06:52:00,
2013-02-06 21:01:00,55.0,54.0,-100.00,East,97,2.0,9.0,96,0.00,,,0.00,0.000000,,2013-02-07 07:01:00,
2013-02-06 21:11:00,55.0,54.0,-100.00,East,97,2.0,9.0,96,0.00,,,0.00,0.000000,,2013-02-07 07:11:00,
2013-02-06 21:21:00,55.0,54.0,-100.00,East,97,2.0,9.0,96,0.00,,,0.00,0.000000,,2013-02-07 07:21:00,
2013-02-06 21:42:00,55.0,54.0,-100.00,ESE,108,2.0,8.0,97,0.00,,,0.00,0.000000,,2013-02-07 07:42:00,
2013-02-06 21:52:00,55.0,54.0,-100.00,ESE,108,2.0,8.0,97,0.00,,,0.00,0.000000,,2013-02-07 07:52:00,
2013-02-06 22:01:00,55.0,54.0,-100.00,ESE,108,2.0,8.0,97,0.00,,,0.00,0.000000,,2013-02-07 08:01:00,
2013-02-06 22:11:00,55.0,54.0,-100.00,ESE,108,2.0,8.0,97,0.00,,,0.00,0.000000,,2013-02-07 08:11:00,
2013-02-06 22:21:00,55.0,54.0,-100.00,ESE,108,2.0,8.0,97,0.00,,,0.00,0.000000,,2013-02-07 08:21:00,
2013-02-06 22:42:00,55.0,54.0,-100.00,ESE,111,3.0,11.0,96,0.00,,,0.00,0.000000,,2013-02-07 08:42:00,
2013-02-06 22:52:00,55.0,54.0,-100.00,ESE,111,3.0,11.0,96,0.00,,,0.00,0.000000,,2013-02-07 08:52:00,
2013-02-06 23:01:00,55.0,54.0,-100.00,ESE,111,3.0,11.0,96,0.00,,,0.00,0.000000,,2013-02-07 09:01:00,
2013-02-06 23:11:00,55.0,54.0,-100.00,ESE,111,3.0,11.0,96,0.00,,,0.00,0.000000,,2013-02-07 09:11:00,
2013-02-06 23:21:00,55.0,54.0,-100.00,ESE,111,3.0,11.0,96,0.00,,,0.00,0.000000,,2013-02-07 09:21:00,
2013-02-06 23:42:00,55.0,54.0,-100.00,ESE,110,2.0,9.0,97,0.00,,,0.00,0.000000,,2013-02-07 09:42:00,
2013-02-06 23:52:00,55.0,54.0,-100.00,ESE,110,2.0,9.0,97,0.00,,,0.00,0.000000,,2013-02-07 09:52:00,